Location: *
(32.8667°N, 13.1833°E)
Time: 10:05:58
(UTC+00:00)

SPOT 1/Viking Rocket - Pass Details

Date: 18 July 2019
Orbit: 778 x 794 km, 98.5° (Epoch: 23 August)

Event Time Altitude Azimuth Distance (km) Brightness Sun altitude
Exits shadow 20:20:29 44° 98° (E) 1,070 3.9 -22.1°
Maximum altitude 20:21:12 47° 73° (ENE) 1,026 3.9 -22.3°
Drops below altitude 10° 20:26:09 10° 0° (N) 2,351 6.6 -23.0°
Sets 20:28:33 0° 355° (N) 3,286 7.6 -23.3°
